sat.trackr.live / text

‹ back to catalog

IRIDIUM 128

NORAD 42811 · 2017-039J

PAYLOAD ACTIVE UNKNOWN

§ Identity

Operator
Country
US
Launch date
2017-06-25
Launch site
AFWTR
Launch vehicle
Mass (kg)
RCS (m²)

Purposes: comms

External: N2YO · Heavens-Above · Gunter

§ Orbital elements

Epoch: 2026-09-10T04:29:34.554336Z

Period
100.40 min
Inclination
86.4026°
Eccentricity
0.0002136
Mean motion
14.34217343 rev/d
Perigee alt
776.1 km
Apogee alt
779.2 km
Semi-major
7,155.8 km
B*
2.1481e-5
RAAN
349.6284°
Arg perigee
92.9263°
Mean anomaly
267.2177°
Rev number
48,216

§ Raw data

IRIDIUM 1281 42811U 17039J   26253.18720549  .00000080  00000+0  21481-4 0  99972 42811  86.4026 349.6284 0002136  92.9263 267.2177 14.34217343482168

JSON: /api/v1/satellites/42811 · /tle

For live sub-satellite position, see the globe view (requires WebGL).

§ Visibility from observer

Set your observer location to see the next 7 days of passes ≥ 10°. The values pass through the URL so the page stays shareable.

No JS? Fill the form by hand. The geolocation button needs JavaScript.